Precipitable_Water
1.00 1.09 1.12 1.14 1.21 1.17 1.18 1.17 1.20 1.17 1.14 1.10 1.12 1.16 1.20 1.10 1.01 0.97 0.99 1.06 1.13 1.18 1.22 1.25 1.30 1.33 1.31 1.30 1.30 1.28 1.22 1.16 1.00 1.00 1.04 1.06 1.00 0.98 0.99 1.02 1.03 1.05 1.08
1.01 1.06 1.13 1.20 1.21 1.21 1.21 1.28 1.28 1.20 1.16 1.12 1.19 1.23 1.13 1.03 0.98 0.99 1.05 1.16 1.20 1.19 1.22 1.28 1.31 1.37 1.32 1.33 1.32 1.26 1.24 1.17 1.08 0.98 1.01 1.11 1.07 1.09 1.06 1.03 1.06 1.17 1.21
1.10 1.12 1.12 1.16 1.18 1.23 1.31 1.31 1.20 1.13 1.15 1.20 1.20 1.10 1.01 0.94 0.97 1.05 1.10 1.15 1.19 1.24 1.29 1.31 1.35 1.35 1.30 1.32 1.31 1.28 1.25 1.19 1.17 1.11 1.02 1.15 1.16 1.19 1.17 1.21 1.22 1.25 1.23
1.13 1.16 1.19 1.30 1.30 1.33 1.30 1.22 1.14 1.18 1.17 1.14 1.11 1.04 0.97 0.97 0.99 1.03 1.07 1.14 1.21 1.23 1.31 1.37 1.38 1.36 1.31 1.32 1.30 1.27 1.22 1.21 1.21 1.15 1.08 1.13 1.15 1.23 1.21 1.11 1.12 1.20 1.15
1.01 0.99 1.09 1.15 1.29 1.30 1.24 1.16 1.16 1.17 1.13 1.12 1.08 1.02 1.01 0.95 0.96 0.98 1.03 1.11 1.23 1.30 1.35 1.37 1.38 1.40 1.40 1.37 1.33 1.29 1.27 1.22 1.18 1.13 1.10 1.13 1.09 1.10 1.09 1.12 1.08 1.13 1.13
0.95 1.00 1.08 1.11 1.09 1.09 1.15 1.16 1.15 1.11 1.10 1.08 1.04 1.01 0.95 0.93 0.97 1.00 1.03 1.15 1.28 1.28 1.29 1.32 1.37 1.36 1.37 1.36 1.36 1.34 1.33 1.21 1.14 1.12 1.11 1.06 1.07 1.10 1.11 1.08 1.07 1.02 0.95
0.92 0.98 1.01 0.98 0.98 0.99 1.04 1.08 1.06 1.05 1.02 1.00 0.98 0.98 0.93 0.92 0.96 1.00 1.07 1.11 1.18 1.22 1.24 1.27 1.28 1.31 1.31 1.29 1.29 1.30 1.27 1.27 1.28 1.23 1.13 1.13 1.10 1.13 1.13 1.08 1.06 1.03 1.01
0.81 0.84 0.86 0.89 0.92 0.92 0.94 0.95 0.97 1.00 1.00 0.98 0.99 0.98 0.94 0.90 0.96 1.00 1.05 1.05 1.12 1.13 1.16 1.18 1.23 1.23 1.24 1.25 1.24 1.20 1.19 1.19 1.18 1.20 1.18 1.15 1.17 1.17 1.15 1.12 1.09 1.06 1.02
0.73 0.77 0.80 0.84 0.84 0.85 0.86 0.88 0.90 0.90 0.96 0.96 0.96 0.97 0.91 0.89 0.90 0.94 0.98 1.00 1.04 1.08 1.11 1.13 1.15 1.14 1.18 1.23 1.18 1.12 1.08 1.08 1.13 1.15 1.15 1.14 1.15 1.14 1.14 1.11 1.03 0.97 0.86
0.64 0.69 0.73 0.76 0.78 0.79 0.80 0.82 0.84 0.86 0.87 0.90 0.92 0.92 0.91 0.88 0.87 0.95 0.93 0.97 0.90 0.96 1.02 1.05 1.07 1.09 1.12 1.13 1.11 1.07 1.00 0.99 1.01 1.03 1.04 1.04 1.05 1.05 1.06 1.03 0.99 0.91 0.86
0.58 0.62 0.66 0.69 0.72 0.74 0.75 0.79 0.83 0.82 0.82 0.82 0.85 0.87 0.88 0.82 0.81 0.86 0.89 0.91 0.86 0.83 0.84 0.85 0.96 0.96 1.02 1.03 1.03 0.99 0.96 0.97 0.95 0.95 0.95 0.94 0.94 0.93 0.91 0.89 0.87 0.82 0.75
0.54 0.56 0.58 0.62 0.65 0.67 0.68 0.69 0.72 0.76 0.74 0.74 0.75 0.78 0.82 0.84 0.78 0.81 0.82 0.83 0.85 0.84 0.82 0.84 0.81 0.85 0.88 0.91 0.93 0.91 0.92 0.91 0.89 0.87 0.85 0.83 0.83 0.80 0.77 0.78 0.82 0.80 0.81
0.51 0.52 0.54 0.56 0.58 0.60 0.63 0.63 0.64 0.66 0.68 0.68 0.68 0.69 0.72 0.75 0.77 0.76 0.76 0.76 0.77 0.76 0.75 0.76 0.79 0.79 0.82 0.80 0.78 0.78 0.80 0.78 0.78 0.76 0.71 0.69 0.71 0.73 0.71 0.69 0.71 0.69 0.68
0.47 0.49 0.51 0.52 0.54 0.56 0.57 0.57 0.59 0.60 0.60 0.61 0.61 0.63 0.65 0.67 0.69 0.71 0.71 0.73 0.74 0.74 0.74 0.74 0.74 0.73 0.74 0.74 0.74 0.75 0.75 0.74 0.71 0.69 0.68 0.69 0.70 0.67 0.65 0.65 0.61 0.58 0.55
0.36 0.38 0.41 0.45 0.48 0.50 0.53 0.54 0.55 0.57 0.57 0.56 0.57 0.58 0.59 0.59 0.61 0.64 0.65 0.63 0.66 0.67 0.67 0.68 0.67 0.67 0.66 0.65 0.65 0.66 0.66 0.67 0.65 0.64 0.63 0.62 0.60 0.59 0.57 0.56 0.52 0.48 0.44
0.23 0.24 0.26 0.27 0.30 0.35 0.40 0.45 0.51 0.53 0.54 0.55 0.56 0.56 0.56 0.57 0.58 0.58 0.59 0.60 0.61 0.61 0.59 0.57 0.57 0.57 0.58 0.58 0.58 0.58 0.59 0.58 0.57 0.56 0.55 0.53 0.50 0.49 0.47 0.45 0.43 0.39 0.35
0.18 0.19 0.19 0.19 0.20 0.21 0.22 0.24 0.26 0.33 0.41 0.47 0.50 0.51 0.52 0.52 0.53 0.53 0.54 0.54 0.55 0.55 0.52 0.51 0.50 0.51 0.51 0.51 0.51 0.51 0.51 0.51 0.51 0.49 0.47 0.44 0.42 0.40 0.38 0.37 0.40 0.40 0.38
0.15 0.15 0.15 0.15 0.14 0.14 0.15 0.16 0.18 0.18 0.19 0.22 0.28 0.34 0.40 0.44 0.47 0.48 0.48 0.49 0.47 0.47 0.47 0.46 0.46 0.46 0.46 0.46 0.46 0.46 0.46 0.46 0.44 0.44 0.43 0.42 0.41 0.39 0.36 0.34 0.33 0.32 0.31
0.13 0.13 0.13 0.13 0.12 0.12 0.12 0.12 0.12 0.13 0.13 0.14 0.15 0.16 0.19 0.22 0.24 0.27 0.30 0.32 0.33 0.34 0.35 0.35 0.35 0.35 0.34 0.34 0.33 0.33 0.32 0.32 0.31 0.31 0.30 0.30 0.29 0.28 0.27 0.27 0.26 0.25 0.24
0.13 0.13 0.13 0.13 0.12 0.11 0.11 0.11 0.10 0.10 0.10 0.11 0.11 0.11 0.13 0.14 0.14 0.15 0.17 0.18 0.19 0.20 0.22 0.22 0.23 0.24 0.25 0.25 0.25 0.24 0.23 0.23 0.23 0.23 0.22 0.22 0.21 0.21 0.20 0.19 0.18 0.17 0.16
0.12 0.12 0.12 0.12 0.12 0.12 0.11 0.10 0.10 0.10 0.10 0.10 0.10 0.11 0.11 0.10 0.10 0.11 0.12 0.14 0.14 0.15 0.15 0.16 0.17 0.17 0.18 0.18 0.17 0.16 0.16 0.16 0.16 0.16 0.16 0.15 0.15 0.15 0.15 0.14 0.14 0.13 0.13
0.12 0.11 0.11 0.11 0.11 0.11 0.11 0.11 0.10 0.10 0.10 0.09 0.09 0.10 0.10 0.09 0.09 0.09 0.09 0.10 0.11 0.12 0.13 0.13 0.13 0.13 0.13 0.13 0.13 0.13 0.12 0.12 0.12 0.12 0.12 0.12 0.12 0.12 0.11 0.11 0.11 0.10 0.10
0.11 0.11 0.11 0.11 0.11 0.11 0.11 0.11 0.10 0.10 0.09 0.09 0.09 0.09 0.09 0.09 0.09 0.09 0.09 0.09 0.09 0.09 0.09 0.10 0.10 0.10 0.11 0.10 0.10 0.10 0.09 0.09 0.09 0.09 0.09 0.09 0.09 0.09 0.09 0.09 0.09 0.08 0.08
0.10 0.10 0.11 0.11 0.11 0.10 0.10 0.10 0.10 0.10 0.10 0.09 0.09 0.09 0.09 0.08 0.08 0.08 0.08 0.08 0.08 0.08 0.08 0.08 0.08 0.08 0.08 0.08 0.09 0.09 0.09 0.08 0.08 0.08 0.08 0.08 0.08 0.08 0.08 0.08 0.08 0.08 0.08
0.11 0.10 0.10 0.09 0.09 0.09 0.09 0.10 0.09 0.09 0.09 0.09 0.09 0.09 0.09 0.09 0.08 0.08 0.08 0.08 0.08 0.08 0.08 0.08 0.08 0.08 0.08 0.08 0.08 0.08 0.08 0.08 0.07 0.08 0.08 0.08 0.08 0.08 0.07 0.07 0.07 0.07 0.07
0.10 0.10 0.10 0.09 0.09 0.08 0.08 0.09 0.09 0.08 0.09 0.09 0.09 0.09 0.09 0.09 0.09 0.08 0.08 0.08 0.08 0.08 0.08 0.08 0.08 0.08 0.08 0.08 0.08 0.08 0.07 0.07 0.07 0.07 0.07 0.07 0.07 0.07 0.07 0.07 0.07 0.07 0.07
Wind_Speed
22 27 31 29 29 28 28 27 26 26 26 26 26 26 26 27 29 30 32 32 33 33 33 34 35 36 36 37 38 39 37 34 31 28 30 31 31 32 32 32 31 31 29
18 22 25 26 26 26 26 25 24 24 24 24 24 25 26 27 28 30 31 33 34 34 35 37 36 38 37 38 39 39 40 36 33 31 31 30 31 31 30 30 29 29 29
15 18 21 23 23 23 22 21 21 21 22 23 23 24 25 26 28 29 30 32 34 35 35 37 38 36 38 39 39 40 40 38 36 32 29 31 31 31 29 30 30 29 29
13 14 16 16 19 19 19 19 20 21 21 21 22 22 23 24 24 26 28 31 34 36 37 38 39 41 40 40 39 39 40 38 37 34 31 29 29 29 30 30 29 29 29
11 15 15 16 17 18 18 18 19 19 20 20 20 20 20 21 21 22 25 28 31 29 29 32 32 34 37 39 38 39 39 37 34 33 32 30 29 31 31 29 29 29 30
10 12 12 13 14 15 16 17 17 17 18 19 19 19 20 20 20 20 20 20 20 25 24 27 31 35 34 39 39 38 41 39 35 33 31 30 31 31 31 34 34 34 35
6 3 7 11 13 14 15 16 17 18 19 19 19 19 19 19 20 19 17 15 14 19 22 25 26 28 31 32 34 35 37 37 35 34 34 33 35 36 35 35 36 34 33
7 8 10 11 12 13 15 16 17 18 17 20 19 19 19 19 20 19 17 14 11 14 16 18 20 24 26 30 33 35 36 35 36 36 36 38 39 39 36 35 34 33 32
6 8 10 11 12 13 15 16 18 19 19 19 19 19 18 18 18 17 16 14 11 9 11 14 17 20 24 26 27 27 29 31 30 32 31 31 31 31 31 31 32 32 32
6 7 10 11 12 13 15 17 18 18 19 18 18 19 18 17 16 16 16 15 13 12 12 12 15 18 20 23 24 26 27 27 28 27 26 26 26 27 28 30 30 30 30
7 6 7 10 12 13 15 16 17 18 18 19 19 18 17 18 17 17 16 16 15 14 13 13 13 15 16 21 24 23 29 29 27 26 25 25 25 26 26 27 29 31 32
10 9 7 7 8 10 12 14 17 17 17 18 17 17 16 16 16 15 15 16 15 15 15 14 14 13 14 15 18 19 20 21 22 23 24 25 25 26 26 26 26 26 27
10 10 10 8 7 8 8 10 12 15 14 14 17 19 19 18 19 17 16 17 17 17 17 15 14 15 16 17 17 19 21 22 23 24 24 25 25 26 27 26 26 27 28
11 11 10 10 9 9 8 9 9 11 12 14 15 15 16 17 17 18 17 16 17 17 17 17 18 18 18 19 20 20 21 22 23 25 25 26 26 28 28 29 29 30 30
11 11 11 10 10 10 10 10 9 10 11 12 12 12 13 14 15 15 16 18 18 19 19 20 19 19 20 21 21 22 23 23 24 25 26 27 27 29 30 31 32 32 31
12 12 12 12 11 11 11 11 10 10 10 10 11 13 13 13 14 15 16 17 19 20 20 21 21 21 21 22 22 22 23 24 25 26 26 27 29 30 31 32 32 33 33
14 14 14 14 14 14 14 14 13 13 13 13 13 13 14 15 16 18 19 19 19 20 21 22 22 23 24 24 25 25 26 26 27 28 29 29 30 30 31 32 34 35 35
17 17 17 17 17 17 17 17 17 17 17 17 17 16 16 17 18 19 20 20 21 21 22 23 24 24 25 25 26 27 28 28 29 29 30 30 31 32 32 33 34 35 35
20 20 20 20 21 21 20 21 21 21 21 21 21 21 20 20 19 19 19 20 21 22 23 24 24 25 26 26 27 28 28 28 29 29 29 30 31 31 32 33 33 34 36
23 23 23 24 24 24 24 24 24 24 24 24 25 25 25 24 23 23 22 22 22 22 23 24 24 25 25 26 27 28 28 28 29 29 30 30 31 31 32 33 35 36 36
25 26 27 27 27 27 27 27 27 27 27 27 27 27 27 26 27 27 26 26 26 26 26 26 26 26 27 28 28 28 29 29 30 30 31 31 32 32 33 34 35 35 36
29 29 30 30 30 30 30 30 30 30 30 30 30 30 30 29 29 29 29 29 29 29 29 29 29 29 30 30 31 31 31 31 32 32 33 33 34 34 35 35 35 36 36
31 32 32 32 33 33 33 33 32 32 31 32 32 32 32 32 31 31 31 31 31 31 31 31 32 32 32 32 32 32 33 33 33 34 34 34 35 35 35 35 36 36 36
34 34 35 35 36 35 35 35 34 33 33 32 32 32 32 32 32 32 32 32 32 32 32 32 33 33 33 33 33 33 33 34 34 34 34 35 35 35 35 35 36 36 36
37 37 37 37 37 37 36 35 35 34 33 32 32 31 31 31 31 31 32 32 32 33 33 33 33 33 33 33 33 33 33 34 34 34 34 34 34 34 35 35 35 35 35
39 39 39 38 38 37 36 34 33 32 31 30 29 28 28 29 29 29 29 30 30 31 31 32 32 32 32 32 33 33 33 33 33 34 34 34 34 34 34 34 34 34 33
Wind_Direction
224 222 220 222 226 229 233 237 238 238 237 239 242 244 249 256 258 260 260 258 254 252 249 243 241 235 234 227 226 225 228 230 232 235 233 232 232 232 234 234 236 237 240
225 221 219 223 226 228 232 234 233 234 236 239 241 247 254 260 263 264 261 257 254 253 250 242 237 235 232 228 226 227 227 228 232 235 235 232 232 232 233 232 232 239 243
227 225 222 223 222 227 226 225 229 232 235 240 244 252 258 263 267 266 264 261 256 253 250 241 237 231 232 227 228 228 226 229 230 234 234 232 230 230 231 235 235 239 243
226 220 218 222 219 220 224 227 232 235 239 241 248 254 260 267 269 270 269 265 260 257 250 239 236 235 232 225 229 226 226 227 230 232 231 230 227 229 232 234 236 242 245
227 230 227 229 222 226 230 232 234 238 238 245 250 254 261 269 271 278 278 271 262 247 242 235 233 228 226 224 226 225 223 222 227 230 231 230 233 232 234 237 238 241 247
228 225 220 229 228 235 235 234 235 234 241 249 253 255 264 269 272 281 285 287 257 236 238 232 234 230 232 229 224 225 222 223 230 227 227 232 235 235 239 243 247 251 250
258 192 224 234 235 241 241 240 240 243 246 251 256 260 265 269 271 276 280 288 259 244 244 236 228 227 226 222 220 221 220 226 226 228 232 237 241 246 248 250 250 250 250
252 256 256 250 244 246 245 247 247 245 254 255 257 260 264 270 270 271 271 273 275 248 242 235 227 222 225 219 221 222 225 229 234 237 241 246 250 250 249 247 247 247 249
271 261 261 259 253 254 251 251 250 253 255 259 255 258 265 269 270 266 263 263 263 256 243 231 230 227 218 220 217 215 224 231 234 235 243 246 245 244 245 245 245 247 252
311 284 268 265 262 261 258 255 253 251 256 256 257 261 263 264 267 263 257 254 255 249 245 244 237 229 223 222 222 226 230 230 236 238 236 238 240 244 246 249 248 248 250
352 325 301 279 270 266 263 264 249 257 253 263 261 256 261 262 263 260 256 254 249 245 244 244 240 240 233 228 229 242 232 235 236 234 236 241 243 245 249 251 253 252 253
11 4 344 322 297 279 276 269 266 272 256 263 259 255 260 262 260 257 258 249 250 246 243 244 241 238 232 227 230 230 226 229 232 234 240 244 248 249 253 253 254 253 256
3 2 356 351 337 314 300 283 280 272 265 263 263 264 260 264 259 260 255 254 249 248 246 244 245 242 239 240 239 238 237 237 239 241 245 249 250 249 252 254 254 257 261
1 359 354 351 346 337 326 307 305 290 274 273 269 264 260 262 261 256 254 249 250 249 249 249 248 247 245 246 247 246 244 246 248 248 249 251 252 253 254 256 259 261 263
357 353 349 348 344 339 337 330 311 310 299 282 271 266 267 264 263 258 253 251 253 254 252 253 253 254 253 252 251 250 250 251 253 253 253 254 256 257 259 261 262 263 265
352 349 346 340 333 332 327 321 325 321 317 304 288 277 272 267 261 260 258 260 258 256 255 255 256 255 255 254 254 255 256 256 257 257 258 259 260 262 263 263 264 266 267
343 338 334 331 327 323 319 313 309 308 307 307 304 295 282 272 271 268 266 264 262 259 258 257 257 257 258 259 257 257 258 259 260 261 262 263 264 265 265 266 267 268 269
336 333 329 325 321 317 311 307 303 300 296 297 296 294 292 284 277 274 270 267 266 265 262 260 258 259 260 259 260 261 261 262 263 265 265 265 266 267 267 267 269 270 271
329 326 322 318 316 313 308 304 301 297 294 292 289 288 287 284 282 281 276 272 269 267 265 265 264 263 261 261 261 262 263 265 265 265 266 266 267 268 270 270 272 273 274
322 320 317 314 312 310 307 303 299 295 292 289 288 286 284 280 279 277 276 273 270 269 267 266 265 264 263 263 264 264 265 266 266 266 267 268 269 270 271 273 274 275 276
318 317 315 313 311 307 304 302 298 295 291 288 286 284 282 278 276 275 273 272 270 268 267 266 266 265 265 265 265 266 266 266 267 268 269 270 271 272 273 275 276 277 278
316 314 313 311 308 306 303 301 298 295 291 287 284 282 280 277 275 273 271 270 269 268 267 267 266 266 266 266 266 266 267 268 268 269 270 271 272 273 274 275 276 278 279
313 312 311 309 307 304 302 299 296 294 291 287 284 281 279 276 275 273 271 270 268 267 267 266 266 266 266 266 267 267 268 269 269 270 270 271 272 273 274 276 277 279 280
312 311 309 307 305 303 300 298 295 293 290 287 284 281 278 276 274 273 271 270 269 268 268 268 267 266 266 266 267 268 269 269 270 270 271 271 272 273 275 276 278 279 281
311 310 308 306 304 301 299 296 294 292 289 287 284 281 278 276 275 273 272 271 270 268 267 267 267 267 266 266 267 269 270 270 271 271 271 272 273 274 276 277 278 279 281
310 309 307 304 302 300 297 294 292 290 288 286 284 282 279 277 275 274 273 272 271 270 268 268 267 267 267 267 268 269 270 271 271 272 272 272 273 274 276 277 278 280 281